• MPC Preparation (Info)

  • MPEC 2015-K14 : 2015 JD3

    The following Minor Planet Electronic Circular may be linked-to from your own Web pages, but must not otherwise be redistributed electronically.

    A form allowing access to any MPEC is at the bottom of this page.


    Read MPEC 2015-K13 Read MPEC 2015-K15


    M.P.E.C. 2015-K14                                Issued 2015 May 18, 14:13 UT
    
         The Minor Planet Electronic Circulars contain information on unusual
             minor planets and routine data on comets.  They are published
       on behalf of Commission 20 of the International Astronomical Union by the
              Minor Planet Center, Smithsonian Astrophysical Observatory,
                              Cambridge, MA 02138, U.S.A.
    
                 Prepared using the Tamkin Foundation Computer Network
    
                                  MPC@CFA.HARVARD.EDU
                URL https://www.minorplanetcenter.net/    ISSN 1523-6714
    
                                       2015 JD3
    
    Observations:
         K15J03D* C2015 05 15.47804 16 20 32.543-31 48 29.85         20.1 wLEK014F51
         K15J03D  C2015 05 15.48901 16 20 30.276-31 49 02.07         20.7 wLEK014F51
         K15J03D  C2015 05 15.49993 16 20 28.034-31 49 33.41         20.1 wLEK014F51
         K15J03D  C2015 05 15.51086 16 20 25.788-31 50 04.61         20.3 wLEK014F51
         K15J03D _C2015 05 16.51795916 18 09.187-32 39 39.00         19.2 RtEK014568
         K15J03D _C2015 05 16.51934916 18 08.890-32 39 42.97         19.4 RtEK014568
         K15J03D _C2015 05 16.52293016 18 08.143-32 39 52.80         19.6 RtEK014568
         K15J03D _C2015 05 16.52424916 18 07.871-32 39 56.41         19.0 RtEK014568
         K15J03D _C2015 05 16.52556416 18 07.601-32 39 59.96         18.9 RtEK014568
         K15J03D |C2015 05 18.14184 16 14 26.93 -33 56 46.5          20.3 VuEK014807
         K15J03D |C2015 05 18.14480 16 14 26.30 -33 56 55.8          20.2 VuEK014807
         K15J03D |C2015 05 18.14777 16 14 25.67 -33 57 04.9          20.2 VuEK014807
    
    Observer details:
    568 Mauna Kea.  Observers R. J. Wainscoat, D. Woodworth.  Measurers M. Micheli,
        R. J. Wainscoat.  3.6-m Canada-France-Hawaii Telescope + CCD.
    807 Cerro Tololo.  Observers T. Linder, R. Holmes.  0.41-m f/11
        Ritchey-Chretien + CCD.
    F51 Pan-STARRS 1, Haleakala.  Observers R. Anderson, B. Gibson, T. Goggia,
        N. Primak, A. Schultz, M. Willman.  Measurers K. Chambers, S. Chastel,
        L. Denneau, H. Flewelling, M. Huber, E. Magnier, E. Schunova, R. Wainscoat,
        C. Waters, R. Weryk.  1.8-m Ritchey-Chretien + CCD.
    
    Orbital elements:
    2015 JD3                                                 Earth MOID = 0.0524 AU
    Epoch 2015 June 27.0 TT = JDT 2457200.5                 MPC
    M 166.40629              (2000.0)            P               Q
    n   0.90649689     Peri.   62.40047     -0.27938268     -0.95961888
    a   1.0573656      Node    43.86402     +0.86341159     -0.26603199
    e   0.0081037      Incl.    2.71442     +0.42007825     -0.09142533
    P   1.09           H   25.2           G   0.15           U   6
    Residuals in seconds of arc
    150515 F51  0.0   0.1+    150516 568  0.0   0.0     150516 568  0.1+  0.0
    150515 F51  0.0   0.1-    150516 568  0.0   0.1-    150518 807  0.0   0.0
    150515 F51  0.0   0.0     150516 568  0.0   0.0     150518 807  0.0   0.1-
    150515 F51  0.1-  0.0     150516 568  0.1+  0.0     150518 807  0.0   0.1+
    
    Ephemeris:
    2015 JD3                 a,e,i = 1.06, 0.01, 3                   q = 1.0488
    Date    TT    R. A. (2000) Decl.     Delta      r     Elong.  Phase     V
    2015 04 18    16 39 27.9 -12 37 46   0.07389 1.0588   136.5    40.7    21.3
    ...
    2015 05 03    16 38 42.6 -21 48 58   0.06024 1.0609   150.9    27.6    20.5
    ...
    2015 05 11    16 29 10.4 -28 04 44   0.05563 1.0619   158.9    20.0    20.1
    ...
    2015 05 17    16 17 06.3 -33 01 10   0.05369 1.0626   163.0    16.2    19.9
    2015 05 18    16 14 42.5 -33 49 50   0.05351 1.0628   163.3    15.9    19.8
    2015 05 19    16 12 13.0 -34 37 58   0.05337 1.0629   163.5    15.7    19.8
    ...
    2015 05 25    15 55 47.1 -39 08 59   0.05337 1.0635   161.6    17.5    19.9
    ...
    2015 06 02    15 32 39.6 -44 01 00   0.05540 1.0642   154.3    24.4    20.2
    ...
    2015 06 17    15 00 07.8 -49 08 03   0.06381 1.0653   139.5    38.2    20.9
    
    A. U. Tomatic                (C) Copyright 2015 MPC           M.P.E.C. 2015-K14
    

    Read MPEC 2015-K13 Read MPEC 2015-K15


    MPEC number:

    Enter an MPEC number in one of the following forms:

    • 1997-B01 (the full form)
    • J97B01 (the packed version of the full form)
    • B01 (the abbreviated form)